Pagrindinis puslapis
METAR-TAF:

METAR-TAF

Oro uostai :

Pajala, Švedija

platuma: 67-14-44N, ilguma: 023-04-08E, Aukštis: 165 m

Dabartinis oras

Ataskaita buvo paskelbta 39 minutes, ne 23:50 UTC
Vėjas 9 kt iš Pietų
Temperatūra 21°C
Drėgmė 78%
Slėgis 1010 hPa
Matomumas 10 km arba daugiau

METAR: ESUP 022350Z AUTO 19009KT 9999 BKN092/// 21/17 Q1010

Laikas: 02:29 (00:29 UTC)


TAF: trūkstamas

Orai ataskaitas ir orų prognozės (METAR, TAF).

turimą stotys yra geltonos ir raudonos taškus žemėlapyje.

Perkelti pele per norėdami pamatyti stoties vardą.

Tada spustelėkite, norėdami matyti oro stebėjimo ir prognozės.

Norėdami pakeisti žemėlapį: spustelėkite ant žalios mygtukų su juodo kryžiaus žemyn,; žalią mygtuką su brūkšneliu, jei norite nutolinti; arba žalių rodyklių gretimoms žemėlapius.


METAR-TAF: